Regional Weather Roundup
Issued by NWS

Home | Current Version | Previous Version | Text Only | Print | Product List | Glossary Off
Versions: 1 2 3 4 5 6 7 8 9 10 11 12 13 14 15 16 17 18 19 20 21 22 23 24 25 26 27 28 29 30 31 32 33 34 35 36 37 38 39 40 41 42 43 44 45 46 47 48 49 50

939
ASUS43 KBIS 230402
RWRND

NORTH DAKOTA REGIONAL WEATHER ROUNDUP
NATIONAL WEATHER SERVICE BISMARCK ND
1100 PM CDT SAT APR 22 2017

NOTE: "FAIR" INDICATES FEW OR NO CLOUDS BELOW 12,000 FEET WITH NO
SIGNIFICANT WEATHER AND/OR OBSTRUCTIONS TO VISIBILITY.


NDZ001>003-009>011-017-230500-
NORTHWEST NORTH DAKOTA

CITY           SKY/WX    TMP DP  RH WIND       PRES   REMARKS
WILLISTON      CLOUDY    39  33  79 VRB5      30.13F
MINOT          CLOUDY    34  30  85 E15       30.21R
MINOT AFB      CLOUDY    33  32  94 E14       30.20S
$$

NDZ018>021-031>035-040>046-230500-
SOUTHWEST NORTH DAKOTA

CITY           SKY/WX    TMP DP  RH WIND       PRES   REMARKS
BISMARCK       MOCLDY    41  35  79 NE18      30.15R
DICKINSON      CLOUDY    39  35  86 NE18      30.07R
GARRISON         N/A     34  28  79 E16G23    30.17R
HETTINGER ARPT CLOUDY    54  41  61 NE3       30.04S
$$

NDZ004>008-012>016-024-026-027-054-230500-
NORTHEAST NORTH DAKOTA

CITY           SKY/WX    TMP DP  RH WIND       PRES   REMARKS
GRAND FORKS    FLURRIES  35  31  85 N13       30.23S
GRND FRKS AFB  CLOUDY    33  29  86 NE13      30.23S
DEVILS LAKE    LGT RAIN  33  29  85 NE18G26   30.23R
$$

NDZ022-023-025-028>030-036>039-047>053-230500-
SOUTHEAST NORTH DAKOTA

CITY           SKY/WX    TMP DP  RH WIND       PRES   REMARKS
FARGO          LGT RAIN  39  33  79 N21G35    30.15R
JAMESTOWN      MOCLDY    35  30  82 NE18      30.17R
$$





USA.gov is the U.S. government's official web portal to all federal, state and local government web resources and services.